{"data":{"norad_id":61010,"intl_designator":"2024-158W","name":"STARLINK-32347","alt_names":[],"object_type":"PAYLOAD","status":"ACTIVE","operator":null,"country":"US","launch_date":"2024-09-05","launch_site_code":"AFETR","launch_vehicle":null,"mission":null,"orbit_class":"UNKNOWN","rcs_meters":null,"size_class":null,"mass_kg":null,"dimensions":null,"purposes":["comms"],"wikipedia_slug":null,"has_3d_model":false,"image_url":null,"decayed_at":null,"tle_current":{"epoch":"2026-09-21T07:03:42.142464Z","epoch_age_seconds":123417,"freshness":"FRESH","line1":"1 61010U 24158W   26264.29423776  .00000236  00000+0  18115-4 0  9998","line2":"2 61010  53.1594 233.8159 0001382  82.3465 277.7694 15.34388288115571","mean_motion":15.34388288,"eccentricity":0.0001382,"inclination_deg":53.1594,"raan_deg":233.8159,"arg_perigee_deg":82.3465,"mean_anomaly_deg":277.7694,"bstar":1.8115e-5,"rev_number":11557,"period_min":93.848474422141,"perigee_km":461.79264202868,"apogee_km":463.68345989277,"semimajor_km":6840.8750509607,"source":"CELESTRAK","updated_at":"2026-09-22T09:00:49.329809Z"}}}